FW7618 Weather Reports


time (UTC)temp
C
wind
direction
speed
KPH
gust
KPH
rain 1hr
cm
rain 24hr
cm
rain mn
cm
humidity
%
barometer
mb
20260503173115 15 85 4.8 14.5 0.00 0.03 0.03 40 1017.9
20260503171545 15 342 3.2 16.1 0.00 0.03 0.03 44 1018.3
20260503081552 1 0 0.0 0.0 0.03 0.03 0.03 87 1018.6
20260503071543 2 0 0.0 0.0 0.00 0.00 0.00 84 1018.4
20260503054539 2 0 0.0 0.0 0.00 0.00 0.00 81 1018.8
20260503053037 3 0 0.0 0.0 0.00 0.00 0.00 81 1018.7
20260503051537 3 0 0.0 0.0 0.00 0.00 0.00 81 1018.7
20260503050048 3 0 0.0 0.0 0.00 0.00 0.00 81 1018.6
20260503044543 3 0 0.0 0.0 0.00 0.00 0.00 80 1018.6
20260503043039 3 0 0.0 0.0 0.00 0.00 0.00 79 1018.7
20260503041541 3 0 0.0 0.0 0.00 0.00 0.00 79 1018.6
20260503040038 3 0 0.0 0.0 0.00 0.00 0.00 77 1018.6
20260503034545 3 0 0.0 0.0 0.00 0.03 0.00 76 1018.6
20260503033042 4 0 0.0 0.0 0.00 0.03 0.00 75 1018.6
20260503031553 4 0 0.0 0.0 0.00 0.03 0.00 74 1018.6
20260503030040 5 0 0.0 0.0 0.00 0.03 0.00 72 1018.7
20260503024548 5 0 0.0 0.0 0.00 0.03 0.00 71 1018.7
20260503023054 5 0 0.0 0.0 0.00 0.03 0.00 70 1018.6
20260503021539 6 0 0.0 0.0 0.00 0.03 0.00 68 1018.6
20260503020051 6 0 0.0 0.0 0.00 0.03 0.00 63 1018.5
20260503014539 6 0 0.0 0.0 0.00 0.03 0.00 60 1018.5
20260503013040 7 0 0.0 0.0 0.00 0.03 0.00 59 1018.2
20260503011553 7 0 0.0 3.2 0.00 0.03 0.00 57 1018.1
20260503010044 7 0 1.6 6.4 0.00 0.03 0.00 55 1018.0
20260503004539 8 232 1.6 6.4 0.00 0.03 0.00 55 1017.9
20260503003040 8 223 3.2 9.7 0.00 0.03 0.00 53 1017.8
20260503001538 8 217 1.6 8.0 0.00 0.03 0.00 53 1017.6
20260503000045 9 221 3.2 11.3 0.00 0.03 0.00 52 1017.3
20260502234546 9 164 4.8 12.9 0.00 0.03 0.00 49 1017.3
20260502233042 10 0 0.0 9.7 0.00 0.03 0.00 48 1017.2
20260502231549 10 0 1.6 14.5 0.00 0.03 0.00 50 1017.1
20260502230042 10 119 1.6 11.3 0.00 0.03 0.00 49 1017.0
20260502224555 11 126 1.6 12.9 0.00 0.03 0.00 47 1016.9
20260502223047 11 134 1.6 9.7 0.00 0.03 0.00 46 1016.9
20260502221549 11 0 1.6 8.0 0.00 0.03 0.00 48 1016.8
20260502220051 11 184 3.2 11.3 0.00 0.03 0.00 47 1016.8
20260502214550 11 110 1.6 9.7 0.00 0.03 0.00 48 1016.6
20260502213042 11 0 0.0 11.3 0.00 0.03 0.00 46 1016.7
20260502211542 11 239 0.0 8.0 0.00 0.03 0.00 49 1016.5
20260502210040 11 142 1.6 11.3 0.00 0.03 0.00 44 1016.5
20260502204537 11 165 1.6 17.7 0.00 0.03 0.00 45 1016.6
20260502203047 11 232 1.6 8.0 0.00 0.03 0.00 43 1016.5
20260502201543 11 0 1.6 11.3 0.00 0.03 0.00 43 1016.6
20260502200055 11 0 1.6 14.5 0.00 0.03 0.00 46 1016.8
20260502194540 11 206 1.6 11.3 0.00 0.03 0.00 44 1016.9
20260502193057 11 123 4.8 11.3 0.00 0.03 0.00 44 1016.9
20260502191550 11 0 1.6 11.3 0.00 0.03 0.00 44 1017.0
20260502190044 12 94 1.6 16.1 0.00 0.03 0.00 44 1017.3
20260502184543 11 145 1.6 14.5 0.00 0.03 0.00 44 1017.3
20260502183037 11 132 4.8 12.9 0.00 0.03 0.00 43 1017.4
20260502181539 12 179 4.8 12.9 0.00 0.03 0.00 46 1017.5